Regional Weather Roundup
Issued by NWS

Home | Current Version | Previous Version | Graphics & Text | Print | Product List | Glossary On
Versions: 1 2 3 4 5 6 7 8 9 10 11 12 13 14 15 16 17 18 19 20 21 22 23 24 25 26 27 28 29 30 31 32 33 34 35 36 37 38 39 40 41 42 43 44 45 46 47 48 49 50
344
ASUS45 KTFX 231610
RWRMT
MONTANA REGIONAL WEATHER ROUNDUP
NATIONAL WEATHER SERVICE GREAT FALLS MT
900 AM MST THU FEB 23 2017

NOTE: "FAIR" INDICATES FEW OR NO CLOUDS BELOW 12000 FEET WITH NO
SIGNIFICANT WEATHER AND/OR OBSTRUCTIONS TO VISIBILITY.

MTZ001>007-043-231700-
WEST OF THE DIVIDE

CITY           SKY/WX    TMP DP  RH WIND       PRES   REMARKS
KALISPELL      CLOUDY    27  20  75 NW5       29.97R
MISSOULA       CLOUDY    31  28  89 CALM      29.96R
BUTTE          FLURRIES  23  18  81 CALM      29.81R
MULLAN PASS    CLOUDY    20  16  84 NW5       29.84R FOG
ANACONDA         N/A     25  16  68 N15G21    29.84S WCI  12
DEER LODGE       N/A     27  18  69 N9        29.89S WCI  17
EUREKA           N/A     21  19  93 CALM      30.04R
HAMILTON         N/A     30  25  80 N9        29.90R WCI  22
LIBBY            N/A     23  21  93 CALM      30.04R
PLAINS           N/A     25  19  77 CALM      30.00R
RONAN            N/A     27  21  77 N3        30.00R
$$

MTZ008-052>055-231700-
SOUTHWEST MONTANA

CITY           SKY/WX    TMP DP  RH WIND       PRES   REMARKS
BOZEMAN        CLOUDY    31  20  63 CALM      29.83S
DILLON         CLOUDY    26  18  71 NE22G29   29.76R WCI  12
W YELLOWSTONE  CLOUDY    21  10  63 N13G18    29.68S WCI   9
ENNIS          CLOUDY    25  19  80 NW18      29.79S WCI  11
THREE FORKS      N/A     31 -47   2 N10       29.85S WCI  22
TWIN BRIDGES     N/A     26  18  72 N21       29.79R WCI  12
$$

MTZ009-010-012-014-046-048-049-054-231700-
EAST SLOPES AND CENTRAL MONTANA

CITY           SKY/WX    TMP DP  RH WIND       PRES   REMARKS
CUT BANK       LGT SNOW  20  16  84 N13       30.01S FOG     WCI   7
GREAT FALLS    CLOUDY    26  23  88 NE13      29.97R WCI  15
MALMSTROM AFB  CLOUDY    27  27 100 NE13      29.98S WCI  16
HELENA         CLOUDY    31  23  72 N12       29.91R WCI  22
AUGUSTA        SNOWSHWR  22  23 100 N14       29.95R WCI  10
BOWMANS CRNR   LGT SNOW  23  23  99 NE17      29.91S WCI   9
CHOTEAU          N/A     23  23 100 N13       30.00S FOG     WCI  11
CONRAD           N/A     25  24  96 N5        30.02S
POWER          PTSUNNY   23  22  97 NE13      29.97R FOG     WCI  11
RAYNESFORD     PTSUNNY   25  21  85 SE12      29.95R WCI  14
ULM            PTSUNNY   26  24  91 MISG      29.96S
$$

MTZ011-013-016-021-045-047-050-051-231700-
NORTH CENTRAL MONTANA

CITY           SKY/WX    TMP DP  RH WIND       PRES   REMARKS
HAVRE          LGT SNOW  24  21  88 NE13      30.05S FOG     WCI  12
LEWISTOWN      CLOUDY    23  19  85 E10       29.93R WCI  12
N BAR RANCH    CLOUDY    21  19  93 N5        29.94R
CHINOOK          N/A     27  21  80 NE5       30.07S
DENTON         PTSUNNY   24  23  95 E14       29.94R WCI  12
FORT BENTON      N/A     27  23  86 CALM        N/A
GEYSER         FLURRIES  24  23  96 NE6       29.95R WCI  16
GRASS RANGE    CLOUDY    24  23  97 NE7       29.93R WCI  15
JUDITH GAP     LGT SNOW  22  20  94 N20       29.89R FOG     WCI   6
ROY            FLURRIES  24  23  97 MISG      29.97R
STANFORD       FLURRIES  22  21  98 NE7       29.94R WCI  13
WINIFRED         N/A     23  22  97 E8        29.96S WCI  13
$$

MTZ017>020-022>027-061-062-231700-
NORTHEAST MONTANA

CITY           SKY/WX    TMP DP  RH WIND       PRES   REMARKS
GLASGOW        CLOUDY    29  27  92 N9        30.03R FOG     WCI  20
JORDAN           N/A     27  24  89 N5        30.01R
SIDNEY         CLOUDY    29  28  96 N6        30.05R WCI  23
WOLF POINT     SUNNY     28  25  88 CALM      30.04R
PLENTYWOOD       N/A     21  18  86 NE14      30.06S WCI   8
POPLAR           N/A     27  25  93 NE15      30.04F WCI  15
SCOBEY           N/A     23  15  71 N10       30.03S WCI  12
$$

MTZ028>42-056>058-231700-
SOUTHCENTRAL AND SOUTHEAST MONTANA

CITY           SKY/WX    TMP DP  RH WIND       PRES   REMARKS
BAKER          CLOUDY    27  23  85 E16       29.96S WCI  15
BILLINGS       CLOUDY    27  21  78 E15       29.91S WCI  15
LIVINGSTON     LGT SNOW  26  22  84 E17       29.83S VSB 3/4 WCI  13
MILES CITY     CLOUDY    29  25  85 NE10      29.97S WCI  20
BIG TIMBER     FOG       27  25  93 NE10      29.90R VSB 1/2 WCI  17
EKALAKA          N/A     24  21  88 N9        29.89S WCI  14
FORSYTH          N/A     28  25  86 NE9       29.96S WCI  20
HARLOWTON      FLURRIES  24  21  91 N21       29.89S WCI   9
LAUREL           N/A     27  22  81 CALM      29.89S
ROUNDUP          N/A     27  20  75 N8        29.86S WCI  19
$$

REGIONAL REPORTS...DAKOTAS

CITY           SKY/WX    TMP DP  RH WIND       PRES   REMARKS
WILLISTON      CLOUDY    28  24  85 N13       30.06R WCI  17
MINOT          CLOUDY    23  17  78 N16       30.07R WCI  10
DICKINSON      LGT SNOW  27  25  92 NE7       29.97S FOG     WCI  19
BEACH            N/A    N/A N/A N/A MISG        N/A
CROSBY         LGT SNOW  23  23 100 N14       30.10S WCI  11
TIOGA          CLOUDY    23  23 100 NE16      30.05R FOG     WCI  10
WATFORD CITY   CLOUDY    27  27 100 N7        30.03R WCI  19
BISMARCK       CLOUDY    31  26  82 NE6       30.03S WCI  25
GRAND FORKS    CLOUDY    28  20  71 N16       30.06R WCI  16
FARGO          CLOUDY    30  23  75 N12       30.03R WCI  20
BUFFALO SD       N/A     27  23  85 NE20      29.85F WCI  13
RAPID CITY     LGT SNOW  25  22  88 NE12      29.88R VSB 3/4 WCI  14
$$

REGIONAL REPORTS...WYOMING/IDAHO/WASHINGTON

CITY           SKY/WX    TMP DP  RH WIND       PRES   REMARKS
GILLETTE       CLOUDY    26  24  92 NE16      29.79S WCI  14
SHERIDAN       CLOUDY    27  25  92 E8        29.85R WCI  19
BUFFALO WY     FLURRIES  26  22  84 N17G23    29.80R WCI  13
CODY           FLURRIES  23  20  88 N23G30    29.76F WCI   7
YELLOWSTONE LA   N/A     17   8  67 NE8       29.64S WCI   7
IDAHO FALLS    LGT SNOW  27  27 100 SW7       29.67R VSB 3/4 WCI  19
SALMON         CLOUDY    32  19  59 NE3       29.77R
BOISE          CLOUDY    31  25  78 NW21      29.87R WCI  18
SPOKANE        FOG       25  24  96 NE5       30.05R VSB 1/4
$$

REGIONAL REPORTS...ALBERTA

CITY           SKY/WX    TMP DP  RH WIND       PRES   REMARKS
EDMONTON       LGT SNOW  21  18  86 N5        30.08R
CALGARY        CLOUDY    21  18  86 E2        30.02S FOG
LETHBRIDGE     LGT SNOW  25  21  86 E7        30.07R FOG     WCI  17
MEDICINE HAT   CLOUDY    18  16  93 CALM      30.12S
WATERTON GATE    N/A     19  18  93 E6          N/A  WCI  11
CARDSTON         N/A     21  18  86 SE5         N/A
MILK RIVER       N/A     21  18  86 NE9         N/A  WCI  11
$$

REGIONAL REPORTS...SASKATCHEWAN

CITY           SKY/WX    TMP DP  RH WIND       PRES   REMARKS
SWIFT CURRENT  CLOUDY    21  14  73 VRB2      30.08R
REGINA         MOSUNNY   25  18  74 SW6       30.10R WCI  18
SASKATOON      PTSUNNY   21  12  68 NW9       30.12R WCI  11
CYPRESS HILLS    N/A     14  10  85 NE6         N/A  WCI   5
VAL MARIE        N/A     23  21  93 NE14        N/A  WCI  11
ROCKGLEN         N/A     19  19 100 NE5         N/A
ASSINIBOIA       N/A     21  18  86 N3          N/A
$$




USA.gov is the U.S. government's official web portal to all federal, state and local government web resources and services.